TimeEDT,TemperatureF,Dew PointF,Humidity,Sea Level PressureIn,VisibilityMPH,Wind Direction,Wind SpeedMPH,Gust SpeedMPH,PrecipitationIn,Events,Conditions,WindDirDegrees,DateUTC
12:24 AM,30.2,24.8,80,30.06,10.0,WNW,8.1,-,N/A,,Overcast,300,2013-03-17 04:24:00
12:53 AM,30.9,24.1,76,30.09,10.0,NW,11.5,-,N/A,,Overcast,310,2013-03-17 04:53:00
1:53 AM,30.9,24.1,76,30.08,10.0,NNW,10.4,-,N/A,,Overcast,330,2013-03-17 05:53:00
2:20 AM,30.2,23.0,75,30.07,10.0,WNW,5.8,-,N/A,,Overcast,300,2013-03-17 06:20:00
2:53 AM,30.0,23.0,75,30.10,10.0,Calm,Calm,-,N/A,,Overcast,0,2013-03-17 06:53:00
3:53 AM,30.0,24.1,79,30.11,10.0,WSW,3.5,-,N/A,,Overcast,250,2013-03-17 07:53:00
4:18 AM,30.2,24.8,80,30.09,10.0,WNW,4.6,-,N/A,,Overcast,300,2013-03-17 08:18:00
4:53 AM,28.9,19.9,69,30.13,10.0,NNW,17.3,24.2,N/A,,Overcast,330,2013-03-17 08:53:00
5:03 AM,28.4,19.4,69,30.10,10.0,NNW,18.4,-,N/A,,Overcast,330,2013-03-17 09:03:00
5:53 AM,27.0,18.0,69,30.14,10.0,NNW,9.2,-,N/A,,Clear,330,2013-03-17 09:53:00
6:53 AM,27.0,17.1,66,30.17,10.0,North,9.2,-,N/A,,Clear,350,2013-03-17 10:53:00
7:53 AM,26.1,17.1,69,30.19,10.0,North,5.8,-,N/A,,Clear,360,2013-03-17 11:53:00
8:53 AM,27.0,18.0,69,30.22,10.0,North,11.5,-,N/A,,Clear,350,2013-03-17 12:53:00
9:53 AM,28.0,18.0,66,30.25,10.0,North,11.5,-,N/A,,Clear,350,2013-03-17 13:53:00
10:53 AM,28.9,19.0,67,30.26,10.0,NNE,9.2,16.1,N/A,,Partly Cloudy,20,2013-03-17 14:53:00
11:20 AM,28.4,19.4,69,30.24,10.0,NE,10.4,16.1,N/A,,Mostly Cloudy,40,2013-03-17 15:20:00
11:53 AM,28.9,19.0,67,30.27,10.0,ENE,11.5,18.4,N/A,,Overcast,60,2013-03-17 15:53:00
12:53 PM,28.9,15.1,56,30.28,10.0,ENE,13.8,-,N/A,,Mostly Cloudy,60,2013-03-17 16:53:00
1:53 PM,30.0,18.0,61,30.26,10.0,NE,12.7,-,N/A,,Overcast,50,2013-03-17 17:53:00
2:31 PM,30.2,19.4,64,30.24,10.0,ENE,11.5,-,N/A,,Overcast,60,2013-03-17 18:31:00
2:53 PM,30.0,19.0,64,30.26,10.0,ENE,9.2,17.3,N/A,,Overcast,60,2013-03-17 18:53:00
3:43 PM,30.2,19.4,64,30.23,10.0,ENE,11.5,-,N/A,,Overcast,70,2013-03-17 19:43:00
3:53 PM,30.0,19.0,64,30.25,10.0,ENE,10.4,17.3,N/A,,Overcast,60,2013-03-17 19:53:00
4:53 PM,30.0,18.0,61,30.25,10.0,ENE,10.4,-,N/A,,Overcast,60,2013-03-17 20:53:00
5:46 PM,30.2,19.4,64,30.21,10.0,ENE,12.7,18.4,N/A,,Overcast,60,2013-03-17 21:46:00
5:53 PM,30.0,18.0,61,30.24,10.0,ENE,11.5,-,N/A,,Overcast,60,2013-03-17 21:53:00
6:53 PM,30.0,19.9,66,30.23,10.0,East,9.2,17.3,N/A,,Overcast,90,2013-03-17 22:53:00
7:53 PM,28.9,19.9,69,30.23,10.0,ENE,9.2,-,N/A,,Mostly Cloudy,70,2013-03-17 23:53:00
8:06 PM,28.4,19.4,69,30.21,10.0,ENE,8.1,-,N/A,,Scattered Clouds,70,2013-03-18 00:06:00
8:53 PM,28.0,19.0,69,30.25,10.0,ENE,9.2,-,N/A,,Clear,70,2013-03-18 00:53:00
9:53 PM,28.0,19.0,69,30.24,10.0,ENE,9.2,-,N/A,,Clear,70,2013-03-18 01:53:00
10:53 PM,28.0,19.9,72,30.21,10.0,ENE,12.7,19.6,N/A,,Clear,70,2013-03-18 02:53:00
11:53 PM,28.0,19.9,72,30.19,10.0,ENE,12.7,19.6,N/A,,Clear,70,2013-03-18 03:53:00